Location: Benque
(43.2594°N, 0.9178°E)
Time: 18:25:36
(UTC+00:00)

YAOGAN 1 - Pass Details

Date: 24 January 2020
Orbit: 619 x 621 km, 98.0° (Epoch: 26 February)

Event Time Altitude Azimuth Distance (km) Brightness Sun altitude
Rises 17:36:55 0° 137° (SE) 2,887 5.8 -7.6°
Reaches altitude 10° 17:39:20 10° 126° (SE) 1,985 4.8 -8.0°
Maximum altitude 17:43:00 28° 68° (ENE) 1,180 3.4 -8.6°
Drops below altitude 10° 17:46:41 10° 10° (N) 1,998 4.9 -9.2°
Sets 17:49:07 0° 358° (N) 2,908 5.8 -9.7°
